Regional Weather Roundup
Issued by NWS Charleston, SC

Current Version | Previous Version | Graphics & Text | Print | Product List | Glossary On
Versions: 1 2 3 4 5 6 7 8 9 10 11 12 13 14 15 16 17 18 19 20 21 22 23 24 25 26 27 28 29 30 31 32 33 34 35 36 37 38 39 40 41 42 43 44 45 46 47 48 49 50
000
ASUS42 KCHS 142310
RWRCHS
REGIONAL WEATHER ROUNDUP
NATIONAL WEATHER SERVICE CHARLESTON SC
700 PM EDT SUN SEP 14 2014

NOTE: "FAIR" INDICATES FEW OR NO CLOUDS BELOW 12,000 FEET WITH NO
SIGNIFICANT WEATHER AND/OR OBSTRUCTIONS TO VISIBILITY.

NOT ALL STATIONS ARE QUALITY CONTROLLED BY THE NATIONAL
WEATHER SERVICE. USE DATA WITH CAUTION...ESPECIALLY
DEWPOINT OBSERVATIONS.

SCZ027-030-031-034>040-042>050-150000-
...SOUTH CAROLINA...

CITY           SKY/WX    TMP DP  RH WIND       PRES   REMARKS
N CHARLESTON   CLOUDY    78  73  84 NE7       30.16R
WATERFRONT PRK   N/A     79 N/A N/A NE10        N/A
FORT JOHNSON   NOT AVBL
MOUNT PLEASANT CLOUDY    77  73  88 CALM      30.16R FOG
JOHNS ISLAND   LGT RAIN  79  79 100 NE5       30.15S
PINOPOLIS        N/A     73  70  88 NE8       30.10R
MONCKS CORNER    N/A     73  73 100 N5        30.17R FOG
SUMMERVILLE    NOT AVBL
BEAUFORT MCAS  TSTM      81  76  84 N6        30.14R
BEAUFORT ARPT  FAIR      81  77  89 SE3       30.13R
HILTON HEAD IS PTCLDY    81  75  83 CALM      30.14S
GEORGETOWN     NOT AVBL
WALTERBORO     CLOUDY    77  77 100 NE5       30.17R
ORANGEBURG     CLOUDY    74  67  78 NE6       30.17R
BARNWELL       CLOUDY    73  72  94 NE6       30.17S
AIKEN          CLOUDY    72  70  94 NE5       30.22R
MANNING        CLOUDY    72  72 100 NE3       30.18S
KINGSTREE      NOT AVBL
COLUMBIA       CLOUDY    75  64  68 NE5       30.17S
SUMTER         CLOUDY    72  65  79 NE9       30.17S
FLORENCE       CLOUDY    71  63  75 NE8       30.19R
MYRTLE BEACH   CLOUDY    73  66  78 N8        30.17R
N MYRTLE BEACH CLOUDY    72  66  81 N7        30.17R

$$

GAZ063-065-086>088-099>101-113>116-118-119-134-136>141-150-150000-
...GEORGIA...

CITY           SKY/WX    TMP DP  RH WIND       PRES   REMARKS
SAVANNAH ARPT  CLOUDY    83  74  74 SE7       30.13R
HUNTER AAF     MOCLDY    82  75  80 E10       30.11R
FORT STEWART   MOCLDY    82  74  78 E7        30.10S
STATESBORO     NOT AVBL
SYLVANIA       CLOUDY    83  80  89 NE3       30.15R HX  95
CLAXTON        NOT AVBL
THOMSON        CLOUDY    73  71  94 NE3       30.23R
AUGUSTA-BUSH   CLOUDY    74  68  81 N5        30.16R
AUGUSTA-DANIEL CLOUDY    74  68  81 N6        30.18R
SWAINSBORO     TSTM      73  73 100 CALM      30.16S
VIDALIA        TSTM      72  72 100 CALM      30.15R
ALMA           CLOUDY    83  72  69 E8        30.10R
WAYCROSS       CLOUDY    84  76  76 E9        30.10R HX  94
JESUP            N/A     82  77  83 SE3       30.11S HX  91
BRUNSWICK      PTCLDY    82  73  74 E6        30.11F
SAINT SIMONS   PTCLDY    82  74  76 E9        30.11S

$$

SCZ027-028-034-036>038-045-046-048>050-GAZ119-141-150000-
...LAKE AND SUPPLEMENTAL COASTAL OBSERVATIONS...

STATION/POSITION TIME  TEMP    WIND        PRES    WAVE   SWELL
                       AIR SEA DIR/SP/G            HT/PER HT/PER/DIR
                 (UTC) (F)     (DEG/KT/KT) (MB)    (FT/S) (FT/S/D)
UPR LAKE MARION  NOT AVBL
WINYAH BAY       2200   75      10/  4     1021.0S
LAKE MURRAY      2200   72      20/  2/  6 1021.3S
ACE BASIN NERRS  2200   81     100/  2     1020.0S
FORT PULASKI     2300   81     110/  7/ 10 1020.6R
SAPELO ISLAND    2200   85     120/  6     1021.0R

$$

ANZ835-935-AMZ111-154-330-350-352-354-374-450-454-472-150000-
...C-MAN AND BUOY OBSERVATIONS...

STATION/POSITION TIME  TEMP    WIND        PRES    WAVE   SWELL
                       AIR SEA DIR/SP/G            HT/PER HT/PER/DIR
                 (UTC) (F)     (DEG/KT/KT) (MB)    (FT/S) (FT/S/D)
FOLLY BEACH CMAN 2200   80      60/ 14/ 16 1020.8R
BUOY 41004       2300   80 83   60/  2/  4 1020.3R   2/ 4   2/ 5
BUOY 41008       2300   82 85  110/ 12/ 14 1019.7F   2/ 5
5E ST. MARYS GA  2300      85                N/A     2/ 4
FRYING PAN BUOY  NOT AVBL
BUOY 41025       2300   74     360/ 17/ 21 1021.1F   4/ 7   2/ 20/ 7
CAPE LOOKOUT NC  2200   74      20/  9/ 11 1021.8R
BUOY 41002       2239   79 83  240/  6/  8 1021.1R   2/ 5   2/250/ 5
BUOY 41010       2300   84 86  110/  8/ 10 1020.3S   2/ 5   2/200/ 5
BUOY 41012       NOT AVBL
ST AUGUSTINE FL  2300   83     120/ 13/ 14 1020.0F
CAPERS NEARSHORE 2200   78      70/ 16/ 17   N/A
FRIPP NEARSHORE  NOT AVBL


$$


USA.gov is the U.S. government's official web portal to all federal, state and local government web resources and services.